Retour au catalogue

THORAD DELTA 1 DEB

ActifLEO
NORAD 8141·DEBRIS·🇺🇸 United States

Lancé Nov 15, 1974 depuis Vandenberg Space Force Base

Loading…

Prochains Passages (prochaines 24 heures)

TLE

FraisSource: Space-Track

Époque: Sep 14, 2026, 10:04 UTC

1 08141U 74089K   26257.41973405  .00000005  00000-0  35420-3 0  9999
2 08141 101.3967  63.5129 0089660 260.3689 125.8827 12.36380679338497

Suivez THORAD DELTA 1 DEB en temps réel avec AllMySat

Download on the App Store